Stocks held by Nippon India Growth Fund

#Stock NamePrevious Number of SharesPrevious DateCurrent Number of SharesPercentage ChangeLast Changed
1Devyani International Ltd5,147,3462024-07-2116,604,941222.59%2024-07-22
2Indus Towers Ltd13,158,6602024-07-2111,000,000-16.40%2024-07-22
3Bayer CropScience Ltd531,4602024-07-21303,512-42.89%2024-07-22
4Zee Entertainment Enterprises Ltd6,801,0002024-07-218,257,00021.41%2024-07-22
5Voltas Ltd2,503,0802024-07-214,389,18875.35%2024-07-22
6United Breweries Ltd1,170,2532024-07-211,700,00045.27%2024-07-22
7Union Bank of India5,500,0002024-07-2119,400,000252.73%2024-07-22
8Tube Investments of India Ltd3,267,5592024-07-21734,514-77.52%2024-07-22
9Trent Ltd808,9372024-07-211,160,00043.40%2024-07-22
10Timken India Ltd1,134,2182024-07-21660,386-41.78%2024-07-22
11Indian Hotels Co Ltd11,548,9322024-07-216,000,000-48.05%2024-07-22
12Federal Bank Ltd31,465,7962024-07-2124,426,763-22.37%2024-07-22
13Supreme Industries Ltd1,916,2362024-07-211,204,885-37.12%2024-07-22
14Sundram Fasteners Ltd1,456,8772024-07-21949,447-34.83%2024-07-22
15Sanofi India Ltd196,3422024-07-21226,76615.50%2024-07-22
16Prestige Estates Projects Ltd2,201,9092024-07-213,727,05469.26%2024-07-22
17Power Finance Corporation Ltd (PFC)9,495,6522024-07-2130,500,112221.20%2024-07-22
18Polycab India Ltd321,0062024-07-21602,25487.61%2024-07-22
19Piramal Enterprises Ltd1,071,7502024-07-211,655,84254.50%2024-07-22
20Persistent Systems Ltd616,6982024-07-21707,32614.70%2024-07-22
21Page Industries Ltd190,0002024-07-2196,000-49.47%2024-07-22
22Orient Electric Ltd9,974,2282024-07-213,810,364-61.80%2024-07-22
23NLC India Ltd16,251,7512024-07-215,931,129-63.50%2024-07-22
24Mphasis Ltd779,6292024-07-211,000,00028.27%2024-07-22
25Max Healthcare Institute Ltd4,500,0002024-07-214,100,000-8.89%2024-07-22
26Max Financial Services Ltd2,611,5082024-07-214,978,24390.63%2024-07-22
27Mahindra Lifespace Developers Ltd1,035,5742024-07-213,065,489196.02%2024-07-22
28Mahindra & Mahindra Financial Services Ltd8,320,0172024-07-2111,000,00032.21%2024-07-22
29Kansai Nerolac Paints Ltd1,556,5842024-07-213,510,000125.49%2024-07-22
30Jindal Steel & Power Ltd2,777,5002024-07-211,942,668-30.06%2024-07-22
31J B Chemicals & Pharmaceuticals Ltd937,8722024-07-21684,292-27.04%2024-07-22
32Ipca Laboratories Ltd2,565,1692024-07-212,843,19810.84%2024-07-22
33Interglobe Aviation Ltd1,619,4432024-07-21928,703-42.65%2024-07-22
34Info Edge (India) Ltd3,171,9422024-07-21657,543-79.27%2024-07-22
35Indraprastha Gas Ltd4,115,1082024-07-213,452,265-16.11%2024-07-22
36Gujarat Fluorochemicals Ltd281,7352024-07-21374,59532.96%2024-07-22
37Glaxosmithkline Pharmaceuticals Ltd753,2572024-07-21559,000-25.79%2024-07-22
38Fortis Healthcare Ltd12,253,2752024-07-219,954,026-18.76%2024-07-22
39Tata Chemicals Ltd2,064,8842024-07-211,561,427-24.38%2024-07-22
40Endurance Technologies Ltd350,0002024-07-211,150,000228.57%2024-07-22
41Deepak Nitrite Ltd1,000,0002024-07-21593,778-40.62%2024-07-22
42Dalmia Bharat Ltd219,5002024-07-211,635,069644.91%2024-07-22
43Cummins India Ltd1,018,7412024-07-211,300,00027.61%2024-07-22
44Container Corporation Of India Ltd3,208,5232024-07-214,188,22030.53%2024-07-22
45Cholamandalam Financial Holdings Ltd5,339,8972024-07-216,827,42027.86%2024-07-22
46Carborundum Universal Ltd3,265,5822024-07-211,675,041-48.71%2024-07-22
47BSE Ltd1,460,0002024-07-21748,156-48.76%2024-07-22
48Bosch Ltd106,8302024-07-2061,094-42.81%2024-07-22
49Bharat Forge Ltd2,343,5402024-07-213,300,00040.81%2024-07-22
50Bata India Ltd2,091,4142024-07-211,043,061-50.13%2024-07-22
51Balkrishna Industries Ltd4,189,0742024-07-211,040,000-75.17%2024-07-22
52Astral Ltd3,518,7532024-07-211,903,149-45.91%2024-07-22
53Ashok Leyland Ltd18,247,5002024-07-2112,500,000-31.50%2024-07-22
54Apollo Tyres Ltd6,354,3802024-07-214,399,185-30.77%2024-07-22
55Angel One Ltd494,8652024-07-211,384,041179.68%2024-07-22
56Alkem Laboratories Ltd388,5262024-07-21790,000103.33%2024-07-22
57Aditya Birla Fashion & Retail Ltd7,755,0292024-07-2115,400,03098.58%2024-07-22
58Varun Beverages Ltd891,7002024-07-214,300,000382.22%2024-07-22
593M India Ltd45,7042024-07-2060,00031.28%2024-07-22
60Dixon Technologies (India) Ltd549,7282024-07-21399,898-27.26%2024-07-22

About the Author

Author Avatar
Getaka

Getaka, CFA, a financial analyst with 15 years of experience in the industry. Getaka holds an MBA degree and the Chartered Financial Analyst designation, demonstrating his profound understanding of financial analysis and investment management. Throughout his career, he has conducted numerous financial analyses and due diligence processes for companies in the industry, and has a strong track record of identifying key trends and opportunities. He leverages his expertise to deliver a thorough financial analysis of a company, encompassing its financial performance, key ratios, future prospects, and risks. Getaka is committed to providing accurate, reliable, and trustworthy information to help readers make informed decisions about their finances and investments.